Hourly Data Report for April 05, 2017

KENORA A
ONTARIO

49°47'18.000" N
94°21'47.000" W
409.70 m
6034076
71850
YQK

Download Data

Hourly Data (April 2017)
Hourly Data Report for April 5, 2017
TIME
LST
Temp Definition
°C
Dew Point Definition
°C
Rel Hum Definition
%
Precip. Amount Definition
mm

Wind Dir Definition
10's deg

Wind Spd Definition
km/h
Visibility Definition
km
Stn Press Definition
kPa
Hmdx Definition


Wind Chill Definition


Weather Definition


00:00 -1.6 -5.5 75   33 11 24.1 96.85   -5 Clear
01:00 -2.1 -5.6 77   32 10 24.1 96.86   -6 LegendNANA
02:00 -2.6 -5.8 79   33 9 24.1 96.86   -6 LegendNANA
03:00 -3.1 -5.6 83   32 9 24.1 96.88   -7 Clear
04:00 -3.0 -5.8 81   32 5 24.1 96.92   -5 LegendNANA
05:00 -2.6 -5.8 79   1 4 24.1 96.95   -4 LegendNANA
06:00 -2.5 -5.5 80   31 8 24.1 96.99   -6 Mostly Cloudy
07:00 -1.8 -5.3 77   33 8 24.1 97.07   -5 LegendNANA
08:00 -0.7 -5.5 70   32 6 24.1 97.14   -3 LegendNANA
09:00 1.6 -5.8 58   35 9 24.1 97.10     Mainly Clear
10:00 2.3 -6.1 54   30 16 24.1 97.10     LegendNANA
11:00 3.6 -6.4 48   35 13 24.1 97.07     LegendNANA
12:00 4.3 -5.8 48   34 18 24.1 97.03     Mainly Clear
13:00 5.3 -5.7 45   35 21 24.1 97.01     LegendNANA
14:00 6.0 -4.8 46   36 13 24.1 96.98     LegendNANA
15:00 6.1 -5.6 43   36 17 24.1 96.98     Mostly Cloudy
16:00 7.3 -5.1 41   3 14 24.1 97.00     LegendNANA
17:00 7.3 -5.4 40   34 15 24.1 97.04     LegendNANA
18:00 5.9 -5.1 45   36 11 24.1 97.11     Mostly Cloudy
19:00 4.8 -5.0 49   1 9 24.1 97.14     LegendNANA
20:00 3.1 -5.3 54   2 6 24.1 97.19     LegendNANA
21:00 2.3 -5.4 57   1 8 24.1 97.25     Mainly Clear
22:00 1.2 -5.7 60   4 9 24.1 97.30     LegendNANA
23:00 0.9 -5.6 62   1 7 24.1 97.34     LegendNANA

Notes on Data Quality.

Legend

  • E = Estimated
  • M = Missing
  • NA = Not Available*
  • [empty] = Indicates an unobserved value
Date modified: